Погода Борзя

Погода Борзя : погода сейчас, прогноз погоды и архив. Всё, что Вы хотите узнать о погоде Борзя!

Хотите узнать прогноз погоды Борзя? Тогда Вам сюда: Погода Борзя

Поиск расширенной информации на нашем сайте:

Другие новости

Новости СМИ2

Главная страница сайта

Новости сайта

03.07.2017

Напоминаем, что на нашем специализированном сайте Метеоцентр.Азия вы можете получить высокодетализированные автоматические прогнозы погоды по пунктам России, СНГ и мира в авиационном формате (включающие направление и скорость ветра, видимость, явления погоды, количество и форму облачности, нижнюю и верхнюю границу облачности).


Погода Борзя - сегодня

Время (UTC), дата Ветер
(°,м/с) 
Видим.   Явления Облачность Т
(°С)
Тd
(°С)
f(%) Тe
(°С)
Pmin
(гПа)
dP
(гПа)
Po
(мм)
O2
(г/м3)
Тmin Tmax R s Состояние
почвы
03 14.08.18 060 (СВ) 20000 м    4/1 1000 м средняя, верхняя 
[Cu hum|Ac lent|Ci sp]
+25 +14 50 +34  1008.9  0.6  701  256           
06 14.08.18 080 (В) 20000 м    8/3 1000 м верхняя 
[Cu hum|Ci sp]
+26.8 +11.2 38 +31  1008.4  -0.1  701  255           
09 14.08.18 120 (ЮВ) 4{10}  20000 м    6/3 1000 м верхняя 
[Cu hum|Ci sp]
+27.2 +8.5 31 +28  1008.8  0.4  701  255           
15 14.08.18 060 (СВ) н/о    ясно 
+14.6 +12.5 87 +22  1015.5  1.7  704  267           
18 14.08.18 070 (В) н/о    ясно 
+11.9 +10.4 91 +15  1017.6  1.2  705  270           
21 14.08.18 070 (В) 20000 м    6/0 верхняя 
[Ci fib]
+10.3 +9.1 92 +11  1018.9  0.7  705  272           
00 15.08.18 070 (В) 20000 м    9/0 верхняя 
[Ci sp]
+18.3 +13.9 76 +27  1017.7  1.1  706  264  +10        сухая 
03 15.08.18 170 (Ю) 20000 м    9/1 1000 м верхняя 
[Cu hum|Ci sp]
+27.1 +12.9 41 +34  1015.1  -0.3  706  256           
06 15.08.18 150 (ЮВ) 20000 м    9/1 1000 м верхняя 
[Cu hum|Cs]
+29.3 +10.5 31 +32  1013.8  -0.7  705  255           
09 15.08.18 190 (Ю) 20000 м    9/1 1000 м верхняя 
[Cu hum|Cs]
+26.9 +11.3 38 +31  1013.7  -0.7  705  256           
15 15.08.18 170 (Ю) н/о    9/0 средняя, верхняя 
[Ac lent|Ci sp]
+20.7 +14.4 67 +30  1015.4  -0.2  705  261           
18 15.08.18 150 (ЮВ) н/о    9/0 средняя, верхняя 
[Ac lent|Ci sp]
+19.1 +13.9 72 +29  1014.7  -1.1  704  262           
21 15.08.18 170 (Ю) 20000 м    9/3 600 м кучево-дожд., средняя, верхняя 
[Cb calv|Ac lent|Ci sp]
+20.4 +14.3 68 +30  1013.1  -1.1  703  261           
00 16.08.18 160 (Ю) 5{11}  20000 м    9/3 600 м средняя, верхняя 
[Sc diur, vesp|Ac trans|Ci sp]
+22.4 +15 63 +33  1011.6  -0.9  703  258  +19        сухая 
12 16.08.18 190 (Ю) 2{14}  20000 м  в посл. час ливневой дождь  9/6 600 м кучево-дожд., средняя, верхняя 
[Cb calv|Ac lent|Ci sp]
+18.2 +15.2 83 +30  1006.7  -0.7  698  260    +26.5  32     
15 16.08.18 330 (СЗ) н/о  {ливн. осадки}  9/8 600 м кучево-дожд., верхняя 
[Cb calv|Ci sp]
+16 +14.2 89 +25  1008.4  699  263           
18 16.08.18 280 (З) н/о  {ливн. осадки}  8/3 600 м кучево-дожд., верхняя 
[Cb calv|Ci sp]
+13.6 +12 90 +21  1009.3  0.2  699  266           
21 16.08.18 тихо ()   20000 м    9/0 средняя, верхняя 
[Ac trans|Ci sp]
+11.7 +10.3 91 +15  1010  0.1  699  268           
00 17.08.18 300 (СЗ) 20000 м    3/0 верхняя 
[Ci fib]
+15.3 +9.3 67 +17  1010.2  1.1  700  265  +11.7    0.3    влажная 
03 17.08.18 300 (СЗ) 20000 м    3/3 600 м верхняя 
[Cu hum|Ci fib]
+18.6 +8.1 50 +19  1008.7  -0.6  700  262           
06 17.08.18 300 (СЗ) 5{10}  20000 м    8/4 600 м кучево-дожд., верхняя 
[Cb calv|Ci sp]
+19.6 +7.6 46 +20  1007.2  -1.1  699  261           
09 17.08.18 270 (З) 5{10}  20000 м    6/3 1000 м кучево-дожд., средняя, верхняя 
[Cb calv|Ac trans|Ci sp]
+20.5 +7.8 44 +21  1006.3  -0.6  698  260           
15 17.08.18 220 (ЮЗ) н/о    8/0 верхняя 
[Ci sp]
+13 +9.3 78 +15  1007.6  -0.5  698  267           
18 17.08.18 190 (Ю) н/о    9/0 средняя, верхняя 
[Ac lent|Ci sp]
+13 +8.3 73 +13  1006.4  -1.1  697  267           
21 17.08.18 210 (ЮЗ) 20000 м    9/0 средняя, верхняя 
[Ac cast|Ci sp]
+12.2 +8.8 80 +13  1005.5  -1  696  267           
Время (UTC), дата Ветер
(°,м/с) 
Видим.   Явления Облачность Т
(°С)
Тd
(°С)
f(%) Тe
(°С)
Pmin
(гПа)
dP
(гПа)
Po
(мм)
O2
(г/м3)
Тmin Tmax R s Состояние
почвы

Для получения пояснительной информации подведите курсор к названию столбца.

ПОГОДА Борзя - архив

Всё, что Вы хотите узнать о погоде Борзя - удобно и подробно!

Выберите нужную дату (начиная с 1 января 2015* года) и нажмите кнопку "Найти".
Будут отображены архивные сводки погоды по пункту Борзя, начиная с указанной даты.


Отображать данные в формате CSV (для использования в таблицах Excel)


Внимание! Наш архив погоды предназначен исключительно для личного некоммерческого использования в познавательных целях. Если Вам необходимы официальные справки о состоянии погоды (для производственных, юридических, коммерческих и т.п. целей), обращайтесь в органы Росгидромета.

*Примечание: данная дата относится к архиву по метеостанциям СССР (Россия, СНГ, Балтия).
Архив по метеостанциям Зарубежной Европы и Азии (кроме Китая) хранится 10 дней, по другим регионам земного шара (Китай, Африка, Америка, Австралия, Океания) - 1 день.

Борзя - район местоположения метеостанции


Название, широта, долгота, высота метеостанции:
Борзя 50.4°ш. 116.5°д. 676 м над ур. моря [Российская Федерация]

Дополнительная информация

В oтличие oт бoльшинства пoгoдных сайтoв мы публикуем пoдрoбную метеoинфoрмацию в детальнoм прoфессиoнальнoм фoрмате.

Характеристики температуры и влажнoсти вoздуха измеряются на высoте 2 м в тени вдали oт зданий и деревьев.
Скoрoсть ветра измеряется на высoте 10 м (на урoвне рoста челoвека скoрoсть ветра ниже в 1.5-2 раза). Если метеoстанция нахoдится в гoрoде или в лесу, тo скoрoсть ветра занижена на 2-4 м/с пo сравнению с oткрытым местoм. Скoрoсть ветра над акватoриями крупных рек и oзёр, а также на вершинах хoлмoв на 2-5 м/с выше, чем в oбычных услoвиях.
Атмoсфернoе давление в разных тoчках местнoсти мoжет значительнo oтличаться oт давления на метеoстанции, в зависимoсти oт услoвий рельефа (при пoдъёме на 10 м давление пoнижается примернo на 1 мм рт.ст.).